27.02.2024 02:00:00 162,42
27.02.2024 08:00:00 162,42
27.02.2024 09:00:00 162,43
27.02.2024 10:00:00 162,42
27.02.2024 11:00:00 162,43
27.02.2024 17:00:00 162,43
27.02.2024 18:00:00 162,44
27.02.2024 19:00:00 162,43
28.02.2024 01:00:00 162,43
28.02.2024 02:00:00 162,44
28.02.2024 06:00:00 162,44
28.02.2024 07:00:00 162,43
28.02.2024 08:00:00 162,44
28.02.2024 09:00:00 162,43
28.02.2024 10:00:00 162,43
28.02.2024 11:00:00 162,44
28.02.2024 15:00:00 162,44
28.02.2024 16:00:00 162,43
29.02.2024 11:00:00 162,43
29.02.2024 12:00:00 162,44
29.02.2024 21:00:00 162,44
29.02.2024 22:00:00 162,45
01.03.2024 04:00:00 162,45
01.03.2024 05:00:00 162,46
01.03.2024 06:00:00 162,45
01.03.2024 08:00:00 162,45
01.03.2024 09:00:00 162,46
01.03.2024 11:00:00 162,46
01.03.2024 12:00:00 162,45
01.03.2024 13:00:00 162,41
01.03.2024 14:00:00 162,42
01.03.2024 15:00:00 162,41
01.03.2024 16:00:00 162,42
01.03.2024 17:00:00 162,44
01.03.2024 18:00:00 162,45
01.03.2024 19:00:00 162,48
01.03.2024 20:00:00 162,52
01.03.2024 21:00:00 162,54
01.03.2024 22:00:00 162,54
01.03.2024 23:00:00 162,57
02.03.2024 00:00:00 162,59
02.03.2024 01:00:00 162,64
02.03.2024 02:00:00 162,64
02.03.2024 03:00:00 162,59
02.03.2024 05:00:00 162,59
02.03.2024 06:00:00 162,62
02.03.2024 08:00:00 162,58
02.03.2024 09:00:00 162,53
02.03.2024 11:00:00 162,45
02.03.2024 12:00:00 162,40
02.03.2024 13:00:00 162,46
02.03.2024 14:00:00 162,45
02.03.2024 16:00:00 162,45
02.03.2024 17:00:00 162,46
03.03.2024 03:00:00 162,46
03.03.2024 04:00:00 162,47
03.03.2024 05:00:00 162,46
03.03.2024 08:00:00 162,46
03.03.2024 09:00:00 162,49
03.03.2024 11:00:00 162,49
03.03.2024 12:00:00 162,50
04.03.2024 01:00:00 162,50
04.03.2024 02:00:00 162,51
04.03.2024 03:00:00 162,50
04.03.2024 06:00:00 162,50
04.03.2024 07:00:00 162,49
04.03.2024 08:00:00 162,50
04.03.2024 09:00:00 162,49
04.03.2024 10:00:00 162,50
04.03.2024 11:00:00 162,50
04.03.2024 12:00:00 162,51
04.03.2024 13:00:00 162,50
04.03.2024 14:00:00 162,51
04.03.2024 16:00:00 162,51
04.03.2024 17:00:00 162,50
04.03.2024 18:00:00 162,49
04.03.2024 20:00:00 162,49
04.03.2024 21:00:00 162,50
04.03.2024 23:00:00 162,50
05.03.2024 00:00:00 162,49
05.03.2024 01:00:00 162,50
05.03.2024 09:00:00 162,50
05.03.2024 10:00:00 162,49
05.03.2024 11:00:00 162,50
05.03.2024 12:00:00 162,50
05.03.2024 13:00:00 162,49
05.03.2024 14:00:00 162,50
05.03.2024 15:00:00 162,49
06.03.2024 00:00:00 162,49
06.03.2024 01:00:00 162,46
06.03.2024 05:00:00 162,46
06.03.2024 06:00:00 162,47
06.03.2024 07:00:00 162,46
06.03.2024 08:00:00 162,46
06.03.2024 09:00:00 162,48
06.03.2024 10:00:00 162,48
06.03.2024 11:00:00 162,47
06.03.2024 12:00:00 162,47
06.03.2024 13:00:00 162,48
06.03.2024 23:00:00 162,48
07.03.2024 00:00:00 162,49
07.03.2024 01:00:00 162,49
07.03.2024 03:00:00 162,47
07.03.2024 04:00:00 162,47
07.03.2024 05:00:00 162,50
07.03.2024 06:00:00 162,51
07.03.2024 07:00:00 162,49
07.03.2024 09:00:00 162,49
07.03.2024 10:00:00 162,50
07.03.2024 11:00:00 162,50
07.03.2024 12:00:00 162,51
07.03.2024 13:00:00 162,44
07.03.2024 14:00:00 162,44
07.03.2024 15:00:00 162,46
07.03.2024 16:00:00 162,50
07.03.2024 17:00:00 162,50
07.03.2024 18:00:00 162,49
07.03.2024 23:00:00 162,49
08.03.2024 00:00:00 162,50
08.03.2024 01:00:00 162,50
08.03.2024 02:00:00 162,51
08.03.2024 05:00:00 162,51
08.03.2024 06:00:00 162,50
08.03.2024 07:00:00 162,47
08.03.2024 08:00:00 162,47
08.03.2024 10:00:00 162,38
08.03.2024 11:00:00 162,38
08.03.2024 12:00:00 162,40
08.03.2024 13:00:00 162,38
08.03.2024 14:00:00 162,50
08.03.2024 15:00:00 162,50
08.03.2024 16:00:00 162,51
08.03.2024 18:00:00 162,51
08.03.2024 19:00:00 162,52
08.03.2024 20:00:00 162,51
08.03.2024 21:00:00 162,51
08.03.2024 22:00:00 162,50
08.03.2024 23:00:00 162,50
09.03.2024 00:00:00 162,51
09.03.2024 01:00:00 162,52
09.03.2024 02:00:00 162,51
09.03.2024 03:00:00 162,51
09.03.2024 04:00:00 162,52
09.03.2024 08:00:00 162,52
09.03.2024 09:00:00 162,53
09.03.2024 16:00:00 162,53
09.03.2024 17:00:00 162,54
09.03.2024 18:00:00 162,54
09.03.2024 19:00:00 162,53
09.03.2024 21:00:00 162,53
09.03.2024 22:00:00 162,54
09.03.2024 23:00:00 162,54
10.03.2024 00:00:00 162,55
10.03.2024 02:00:00 162,53
10.03.2024 03:00:00 162,53
10.03.2024 04:00:00 162,54
10.03.2024 05:00:00 162,54
10.03.2024 06:00:00 162,49
10.03.2024 07:00:00 162,48
10.03.2024 08:00:00 162,49
10.03.2024 09:00:00 162,50
10.03.2024 10:00:00 162,51
10.03.2024 11:00:00 162,51
10.03.2024 12:00:00 162,50
10.03.2024 14:00:00 162,50
10.03.2024 15:00:00 162,51
10.03.2024 17:00:00 162,51
10.03.2024 18:00:00 162,52
10.03.2024 20:00:00 162,52
10.03.2024 21:00:00 162,53
10.03.2024 22:00:00 162,52
10.03.2024 23:00:00 162,52
11.03.2024 00:00:00 162,44
11.03.2024 01:00:00 162,45
11.03.2024 05:00:00 162,45
11.03.2024 06:00:00 162,43
11.03.2024 07:00:00 162,43
11.03.2024 08:00:00 162,44
11.03.2024 10:00:00 162,46
11.03.2024 11:00:00 162,42
11.03.2024 12:00:00 162,43
11.03.2024 13:00:00 162,47
11.03.2024 14:00:00 162,49
11.03.2024 15:00:00 162,48
11.03.2024 16:00:00 162,49
11.03.2024 17:00:00 162,51
11.03.2024 18:00:00 162,45
11.03.2024 19:00:00 162,44
11.03.2024 20:00:00 162,41
11.03.2024 21:00:00 162,45
11.03.2024 22:00:00 162,48
11.03.2024 23:00:00 162,49
12.03.2024 00:00:00 162,49
12.03.2024 01:00:00 162,50
12.03.2024 02:00:00 162,44
12.03.2024 03:00:00 162,25
12.03.2024 04:00:00 162,29
12.03.2024 05:00:00 162,29
12.03.2024 06:00:00 162,30
12.03.2024 08:00:00 162,28
12.03.2024 09:00:00 162,31
12.03.2024 10:00:00 162,29
12.03.2024 11:00:00 162,29
12.03.2024 12:00:00 162,28
12.03.2024 13:00:00 162,28
12.03.2024 14:00:00 162,29
12.03.2024 16:00:00 162,29
12.03.2024 17:00:00 162,28
12.03.2024 18:00:00 162,29
12.03.2024 19:00:00 162,29
12.03.2024 20:00:00 162,30
12.03.2024 22:00:00 162,30
12.03.2024 23:00:00 162,31
13.03.2024 03:00:00 162,31
13.03.2024 04:00:00 162,29
13.03.2024 05:00:00 162,31
13.03.2024 11:00:00 162,31
13.03.2024 12:00:00 162,32
13.03.2024 16:00:00 162,32
13.03.2024 17:00:00 162,33
13.03.2024 18:00:00 162,32
13.03.2024 19:00:00 162,33
13.03.2024 20:00:00 162,33
13.03.2024 21:00:00 162,32
13.03.2024 22:00:00 162,33
13.03.2024 23:00:00 162,32
14.03.2024 00:00:00 162,33
14.03.2024 20:00:00 162,33
14.03.2024 21:00:00 162,34
15.03.2024 05:00:00 162,34
15.03.2024 06:00:00 162,33
15.03.2024 22:00:00 162,33
15.03.2024 23:00:00 162,34
16.03.2024 02:00:00 162,34
16.03.2024 03:00:00 162,33
16.03.2024 13:00:00 162,33
16.03.2024 14:00:00 162,34
16.03.2024 15:00:00 162,34
16.03.2024 16:00:00 162,33
16.03.2024 18:00:00 162,33
16.03.2024 19:00:00 162,34
16.03.2024 20:00:00 162,33
17.03.2024 04:00:00 162,33
17.03.2024 05:00:00 162,32
17.03.2024 06:00:00 162,32
17.03.2024 07:00:00 162,33
17.03.2024 08:00:00 162,32
17.03.2024 09:00:00 162,33
17.03.2024 12:00:00 162,33
17.03.2024 13:00:00 162,34
18.03.2024 07:00:00 162,34
18.03.2024 08:00:00 162,35
18.03.2024 09:00:00 162,34
18.03.2024 10:00:00 162,35
19.03.2024 00:00:00 162,35
19.03.2024 01:00:00 162,34
19.03.2024 02:00:00 162,35
19.03.2024 05:00:00 162,35
19.03.2024 06:00:00 162,34
19.03.2024 07:00:00 162,35
19.03.2024 08:00:00 162,34
19.03.2024 13:00:00 162,34
19.03.2024 14:00:00 162,35
19.03.2024 16:00:00 162,35
19.03.2024 17:00:00 162,34
20.03.2024 11:00:00 162,34
20.03.2024 12:00:00 162,35
21.03.2024 12:00:00 162,35
21.03.2024 13:00:00 162,36
21.03.2024 14:00:00 162,35
21.03.2024 15:00:00 162,36
21.03.2024 17:00:00 162,36
21.03.2024 18:00:00 162,35
22.03.2024 09:00:00 162,35
22.03.2024 10:00:00 162,36
22.03.2024 20:00:00 162,36
22.03.2024 21:00:00 162,37
22.03.2024 22:00:00 162,36
22.03.2024 23:00:00 162,37
23.03.2024 09:00:00 162,37
23.03.2024 10:00:00 162,38
23.03.2024 13:00:00 162,38
23.03.2024 14:00:00 162,38
23.03.2024 15:00:00 162,38
23.03.2024 16:00:00 162,38
23.03.2024 17:00:00 162,38
23.03.2024 18:00:00 162,38
23.03.2024 19:00:00 162,36
23.03.2024 20:00:00 162,37
23.03.2024 21:00:00 162,37
23.03.2024 22:00:00 162,35
23.03.2024 23:00:00 162,37
24.03.2024 01:00:00 162,37
24.03.2024 02:00:00 162,38
24.03.2024 05:00:00 162,38
24.03.2024 06:00:00 162,37
24.03.2024 07:00:00 162,37
24.03.2024 08:00:00 162,38
25.03.2024 00:00:00 162,38
25.03.2024 01:00:00 162,37
25.03.2024 03:00:00 162,37
25.03.2024 04:00:00 162,38
25.03.2024 08:00:00 162,38
25.03.2024 09:00:00 162,37
25.03.2024 16:00:00 162,37
25.03.2024 17:00:00 162,38
25.03.2024 18:00:00 162,38
25.03.2024 19:00:00 162,37
26.03.2024 01:00:00 162,37
26.03.2024 02:00:00 162,38
26.03.2024 03:00:00 162,37
26.03.2024 09:00:00 162,37
26.03.2024 10:00:00 162,38
27.03.2024 07:00:00 162,38
27.03.2024 08:00:00 162,38
27.03.2024 09:00:00 162,38
27.03.2024 10:00:00 162,38
27.03.2024 11:00:00 162,38
27.03.2024 20:00:00 162,38
27.03.2024 21:00:00 162,39
27.03.2024 23:00:00 162,39
28.03.2024 00:00:00 162,38
28.03.2024 01:00:00 162,39
28.03.2024 02:00:00 162,38
28.03.2024 04:00:00 162,38
28.03.2024 05:00:00 162,38
28.03.2024 06:00:00 162,38
28.03.2024 07:00:00 162,38
28.03.2024 16:00:00 162,38
28.03.2024 17:00:00 162,37
28.03.2024 18:00:00 162,37
28.03.2024 19:00:00 162,38
28.03.2024 20:00:00 162,40
28.03.2024 21:00:00 162,39
28.03.2024 22:00:00 162,40
28.03.2024 23:00:00 162,40
29.03.2024 00:00:00 162,35
